Hourly Data Report for October 06, 2013

All times are specified in Local Standard Time (LST). Add 1 hour to adjust for Daylight Saving Time where and when it is observed.

GRISE FIORD CLIMATE
NUNAVUT

76°25'22.040" N
82°54'08.020" W
44.50 m
2402351
71971
NGC

Download Data

Hourly Data (October 2013)
Hourly Data Report for October 6, 2013
Temp Definition
°C
Dew Point Temp Definition
°C
Rel Hum Definition
%
Wind Dir Definition
10's deg

Wind Spd Definition
km/h
Visibility Definition
km
Stn Press Definition
kPa
Hmdx Definition


Wind Chill Definition


Weather Definition


TIME
00:00 -9.7 -16.2 59 1 9   101.29   -15 LegendNANA
01:00 -9.5 -16.1 59 36 13   101.31   -16 LegendNANA
02:00 -10.6 -15.6 67 22 6   101.34   -14 LegendNANA
03:00 -10.7 -15.9 66 16 9   101.40   -16 LegendNANA
04:00 -11.0 -16.2 65 28 4   101.44   -13 LegendNANA
05:00 -12.2 -16.1 73 11 7   101.46   -17 LegendNANA
06:00 -12.3 -15.7 76 11 7   101.49   -17 LegendNANA
07:00 -13.0 -16.1 78 10 6   101.53   -17 LegendNANA
08:00 -12.0 -17.2 65 5 15   101.56   -19 LegendNANA
09:00 -12.1 -17.5 64 4 17   101.58   -20 LegendNANA
10:00 -11.2 -17.0 62 5 13   101.59   -18 LegendNANA
11:00 -10.4 -15.9 64 6 7   101.62   -14 LegendNANA
12:00 -10.2 -15.1 67 7 4   101.63   -13 LegendNANA
13:00 -9.5 -15.1 64   0   101.65     LegendNANA
14:00 -9.6 -15.8 61 5 4   101.68   -12 LegendNANA
15:00 -10.0 -15.4 65   0   101.71     LegendNANA
16:00 -10.1 -15.1 67 29 2   101.75   -11 LegendNANA
17:00 -10.6 -14.9 71 4 6   101.76   -14 LegendNANA
18:00 -10.9 -15.0 72 4 6   101.79   -15 LegendNANA
19:00 -11.0 -15.2 71 6 6   101.79   -15 LegendNANA
20:00 -11.0 -15.8 68 5 7   101.80   -15 LegendNANA
21:00 -11.3 -15.8 69 4 11   101.79   -17 LegendNANA
22:00 -11.1 -15.5 70 4 7   101.77   -15 LegendNANA
23:00 -11.3 -15.2 73 7 4   101.78   -14 LegendNANA

Notes on Data Quality.

Legend

  • E = Estimated
  • M = Missing
  • NA = Not Available
  • ‡ = Partner data that is not subject to review by the National Climate Archives
Date modified: